Location: Goettingen
(51.5300°N, 9.9433°E)
Time: 05:38:54
(UTC+02:00)

ISS - Visible Passes

Search period start: 27 May 2018 00:00
Search period end: 06 June 2018 00:00
Orbit: 402 x 407 km, 51.6° (Epoch: 27 May)

Date Brightness Start Highest point End Pass type
(mag) Time Alt. Az. Time Alt. Az. Time Alt. Az.
27 May -4.0 00:21:38 10° W 00:24:54 77° SSW 00:26:26 29° ESE visible
27 May -1.6 01:58:19 10° W 01:59:03 14° W 01:59:03 14° W visible
27 May -3.9 23:29:25 10° W 23:32:42 89° S 23:35:44 12° E visible
28 May -2.9 01:05:58 10° W 01:08:21 33° WSW 01:08:21 33° WSW visible
28 May -3.8 22:37:12 10° W 22:40:29 86° N 22:43:47 10° E visible
29 May -3.7 00:13:42 10° W 00:16:55 53° SSW 00:17:42 40° SSE visible
29 May -3.9 23:21:29 10° W 23:24:44 71° SSW 23:27:06 17° ESE visible
30 May -2.0 00:58:15 10° W 00:59:44 19° WSW 00:59:44 19° WSW visible
30 May -3.9 22:29:14 10° W 22:32:31 85° S 22:35:48 10° E visible
31 May -3.0 00:05:48 10° W 00:08:47 33° SSW 00:09:09 32° SSW visible
31 May -3.5 23:13:29 10° W 23:16:40 47° SSW 23:18:36 20° SE visible
01 Jun -1.2 00:51:04 10° WSW 00:51:13 10° WSW 00:51:13 10° WSW visible
01 Jun -3.8 22:21:11 10° W 22:24:28 65° SSW 22:27:42 10° ESE visible
01 Jun -2.2 23:58:06 10° W 00:00:32 19° SW 00:00:41 19° SSW visible
02 Jun -2.7 23:05:33 10° W 23:08:26 29° SSW 23:10:11 18° SSE visible
03 Jun -3.2 22:13:09 10° W 22:16:16 42° SSW 22:19:23 10° SE visible
03 Jun -1.4 23:51:23 10° SW 23:52:05 11° SW 23:52:20 10° SW visible
04 Jun -1.8 22:57:52 10° W 23:00:03 17° SW 23:01:52 12° S visible
